When you browse on this site, cookies collect data to enhance your experience and personalize the content and advertising you see.
Visit our Privacy Policy to learn more. By continuing to use the site, you agree to this use of cookies and data.
  • în România
  • Lista ţărilor
  • Pe 7 zile
  • Temperatura apei
  • Hartă satelitară
  • Meteo pe hartă
  • Widget-uri
  • user-avatar
    Intrare

    Meteo pe oră la Dalat

    Astăzi, 24 Iunie, Luni

    Timp Temperatura Precipitaţii Vânt Presiune Umiditate
    00:00 +19°C° 0 mm 1 m/s 650 mmHg 96%
    01:00 +19°C° 0 mm 1 m/s 650 mmHg 94%
    02:00 +19°C° 0 mm 1 m/s 650 mmHg 94%
    03:00 +19°C° 0 mm 1 m/s 650 mmHg 94%
    04:00 +19°C° 0 mm 1 m/s 650 mmHg 94%
    05:00 +20°C° 0 mm 1 m/s 650 mmHg 92%
    06:00 +19°C° 0 mm 0 m/s 651 mmHg 90%
    07:00 +20°C° 0 mm 0 m/s 651 mmHg 86%
    08:00 +23°C° 0 mm 1 m/s 652 mmHg 79%
    09:00 +25°C° 0 mm 1 m/s 653 mmHg 71%
    10:00 +27°C° 0 mm 1 m/s 653 mmHg 63%
    11:00 +27°C° 0.4 mm 1 m/s 653 mmHg 65%
    12:00 +27°C° 0.4 mm 2 m/s 653 mmHg 68%
    13:00 +28°C° 0 mm 2 m/s 653 mmHg 68%
    14:00 +27°C° 1.5 mm 2 m/s 652 mmHg 74%
    15:00 +26°C° 1.5 mm 2 m/s 651 mmHg 80%
    16:00 +25°C° 1.5 mm 1 m/s 651 mmHg 86%
    17:00 +24°C° 0.2 mm 1 m/s 651 mmHg 89%
    18:00 +22°C° 0.2 mm 1 m/s 651 mmHg 92%
    19:00 +21°C° 0.2 mm 1 m/s 650 mmHg 96%
    20:00 +21°C° 0 mm 1 m/s 651 mmHg 96%
    21:00 +21°C° 0 mm 1 m/s 651 mmHg 96%
    22:00 +21°C° 0 mm 1 m/s 652 mmHg 96%
    23:00 +21°C° 0.5 mm 1 m/s 652 mmHg 96%

    Mâine, 25 Iunie, Marţi

    Timp Temperatura Precipitaţii Vânt Presiune Umiditate
    00:00 +21°C° 0.5 mm 1 m/s 652 mmHg 96%
    01:00 +21°C° 0.5 mm 1 m/s 652 mmHg 96%
    02:00 +21°C° 0.3 mm 1 m/s 651 mmHg 96%
    03:00 +21°C° 0.3 mm 1 m/s 651 mmHg 96%
    04:00 +21°C° 0.3 mm 1 m/s 651 mmHg 95%
    05:00 +21°C° 0 mm 1 m/s 651 mmHg 95%
    06:00 +21°C° 0 mm 1 m/s 652 mmHg 94%
    07:00 +21°C° 0 mm 1 m/s 652 mmHg 93%
    08:00 +23°C° 0 mm 1 m/s 653 mmHg 83%
    09:00 +25°C° 0 mm 1 m/s 653 mmHg 74%
    10:00 +27°C° 0 mm 2 m/s 654 mmHg 64%
    11:00 +28°C° 0.1 mm 2 m/s 653 mmHg 62%
    12:00 +28°C° 0.1 mm 2 m/s 653 mmHg 60%
    13:00 +29°C° 0.1 mm 2 m/s 653 mmHg 59%
    14:00 +29°C° 0.2 mm 2 m/s 653 mmHg 61%
    15:00 +28°C° 0.2 mm 2 m/s 652 mmHg 63%
    16:00 +28°C° 0.2 mm 2 m/s 651 mmHg 65%
    17:00 +26°C° 0 mm 1 m/s 651 mmHg 74%
    18:00 +24°C° 0 mm 1 m/s 651 mmHg 84%
    19:00 +22°C° 0 mm 1 m/s 651 mmHg 93%
    20:00 +21°C° 0.1 mm 1 m/s 651 mmHg 94%
    21:00 +21°C° 0.1 mm 1 m/s 652 mmHg 95%
    22:00 +21°C° 0.1 mm 1 m/s 652 mmHg 96%
    23:00 +21°C° 0 mm 1 m/s 652 mmHg 96%

    Poimâine, 26 Iunie, Miercuri

    Timp Temperatura Precipitaţii Vânt Presiune Umiditate
    00:00 +21°C° 0 mm 1 m/s 651 mmHg 96%
    01:00 +21°C° 0 mm 1 m/s 651 mmHg 96%
    02:00 +21°C° 0 mm 1 m/s 651 mmHg 96%
    03:00 +20°C° 0 mm 1 m/s 650 mmHg 96%
    04:00 +20°C° 0 mm 1 m/s 650 mmHg 96%
    05:00 +21°C° 0 mm 1 m/s 650 mmHg 93%
    06:00 +21°C° 0 mm 1 m/s 651 mmHg 91%
    07:00 +21°C° 0 mm 2 m/s 651 mmHg 89%
    08:00 +24°C° 0 mm 2 m/s 652 mmHg 80%
    09:00 +26°C° 0 mm 2 m/s 652 mmHg 71%
    10:00 +27°C° 0 mm 2 m/s 653 mmHg 62%
    11:00 +28°C° 0.1 mm 2 m/s 652 mmHg 62%
    12:00 +28°C° 0.1 mm 2 m/s 652 mmHg 62%
    13:00 +28°C° 0.1 mm 2 m/s 652 mmHg 63%
    14:00 +28°C° 0.7 mm 2 m/s 651 mmHg 68%
    15:00 +27°C° 0.7 mm 2 m/s 650 mmHg 73%
    16:00 +26°C° 0.7 mm 2 m/s 650 mmHg 77%
    17:00 +25°C° 0.1 mm 2 m/s 650 mmHg 83%
    18:00 +23°C° 0.1 mm 1 m/s 650 mmHg 88%
    19:00 +21°C° 0.1 mm 1 m/s 650 mmHg 93%
    20:00 +21°C° 0.1 mm 1 m/s 650 mmHg 94%
    21:00 +21°C° 0.1 mm 1 m/s 650 mmHg 94%
    22:00 +21°C° 0.1 mm 1 m/s 651 mmHg 95%
    23:00 +21°C° 0.2 mm 1 m/s 650 mmHg 95%

    27 Iunie, Joi

    Timp Temperatura Precipitaţii Vânt Presiune Umiditate
    00:00 +20°C° 0.2 mm 2 m/s 650 mmHg 94%
    01:00 +20°C° 0.2 mm 2 m/s 650 mmHg 94%
    02:00 +19°C° 0.7 mm 2 m/s 650 mmHg 94%
    03:00 +19°C° 0.7 mm 3 m/s 649 mmHg 93%
    04:00 +19°C° 0.7 mm 3 m/s 649 mmHg 92%
    05:00 +19°C° 0.4 mm 3 m/s 649 mmHg 92%
    06:00 +19°C° 0.4 mm 3 m/s 650 mmHg 91%
    07:00 +20°C° 0.4 mm 3 m/s 650 mmHg 91%
    08:00 +20°C° 0 mm 3 m/s 650 mmHg 87%
    09:00 +21°C° 0 mm 3 m/s 650 mmHg 82%
    10:00 +21°C° 0 mm 2 m/s 651 mmHg 78%
    11:00 +21°C° 0 mm 2 m/s 650 mmHg 78%
    12:00 +21°C° 0 mm 2 m/s 650 mmHg 78%
    13:00 +23°C° 0 mm 2 m/s 649 mmHg 78%
    14:00 +23°C° 0 mm 2 m/s 649 mmHg 75%
    15:00 +24°C° 0 mm 3 m/s 649 mmHg 73%
    16:00 +25°C° 0 mm 3 m/s 649 mmHg 71%
    17:00 +24°C° 0 mm 2 m/s 649 mmHg 78%
    18:00 +21°C° 0 mm 2 m/s 649 mmHg 85%
    19:00 +20°C° 0 mm 2 m/s 649 mmHg 92%
    20:00 +20°C° 0 mm 2 m/s 649 mmHg 92%
    21:00 +20°C° 0 mm 2 m/s 649 mmHg 91%
    22:00 +20°C° 0 mm 2 m/s 650 mmHg 91%
    23:00 +20°C° 0 mm 2 m/s 649 mmHg 91%

    28 Iunie, Vineri

    Timp Temperatura Precipitaţii Vânt Presiune Umiditate
    00:00 +20°C° 0 mm 2 m/s 649 mmHg 91%
    01:00 +20°C° 0 mm 2 m/s 649 mmHg 91%
    02:00 +20°C° 0 mm 2 m/s 649 mmHg 92%
    03:00 +20°C° 0 mm 2 m/s 649 mmHg 92%
    04:00 +20°C° 0 mm 2 m/s 649 mmHg 92%
    05:00 +20°C° 0 mm 3 m/s 649 mmHg 91%
    06:00 +20°C° 0 mm 3 m/s 649 mmHg 90%
    07:00 +20°C° 0 mm 3 m/s 650 mmHg 89%
    08:00 +20°C° 0 mm 3 m/s 650 mmHg 87%
    09:00 +21°C° 0 mm 3 m/s 650 mmHg 85%
    10:00 +21°C° 0 mm 3 m/s 650 mmHg 84%
    11:00 +22°C° 0 mm 3 m/s 650 mmHg 79%
    12:00 +25°C° 0 mm 3 m/s 650 mmHg 74%
    13:00 +26°C° 0 mm 3 m/s 650 mmHg 69%
    14:00 +26°C° 0.1 mm 3 m/s 649 mmHg 70%
    15:00 +25°C° 0.1 mm 3 m/s 649 mmHg 72%
    16:00 +25°C° 0.1 mm 3 m/s 648 mmHg 73%
    17:00 +24°C° 0 mm 3 m/s 648 mmHg 79%
    18:00 +21°C° 0 mm 2 m/s 648 mmHg 85%
    19:00 +20°C° 0 mm 2 m/s 648 mmHg 91%
    20:00 +19°C° 0 mm 2 m/s 649 mmHg 92%
    21:00 +19°C° 0 mm 2 m/s 649 mmHg 92%
    22:00 +19°C° 0 mm 2 m/s 650 mmHg 93%
    23:00 +19°C° 0 mm 2 m/s 649 mmHg 93%

    29 Iunie, Sâmbătă

    Timp Temperatura Precipitaţii Vânt Presiune Umiditate
    00:00 +19°C° 0 mm 2 m/s 649 mmHg 93%
    01:00 +19°C° 0 mm 2 m/s 649 mmHg 93%
    02:00 +19°C° 0 mm 3 m/s 649 mmHg 92%
    03:00 +19°C° 0 mm 3 m/s 648 mmHg 91%
    04:00 +19°C° 0 mm 3 m/s 648 mmHg 91%
    05:00 +19°C° 0 mm 3 m/s 649 mmHg 89%
    06:00 +20°C° 0 mm 3 m/s 649 mmHg 87%
    07:00 +20°C° 0 mm 3 m/s 649 mmHg 85%
    08:00 +21°C° 0 mm 4 m/s 650 mmHg 78%
    09:00 +23°C° 0 mm 4 m/s 650 mmHg 70%
    10:00 +25°C° 0 mm 4 m/s 651 mmHg 63%
    11:00 +26°C° 0 mm 5 m/s 651 mmHg 62%
    12:00 +26°C° 0 mm 5 m/s 650 mmHg 62%
    13:00 +27°C° 0 mm 5 m/s 650 mmHg 61%
    14:00 +26°C° 0.1 mm 4 m/s 650 mmHg 64%
    15:00 +25°C° 0.1 mm 4 m/s 649 mmHg 66%
    16:00 +25°C° 0.1 mm 4 m/s 649 mmHg 69%
    17:00 +22°C° 0 mm 3 m/s 649 mmHg 75%
    18:00 +21°C° 0 mm 3 m/s 649 mmHg 82%
    19:00 +19°C° 0 mm 2 m/s 649 mmHg 89%
    20:00 +19°C° 0 mm 2 m/s 649 mmHg 88%
    21:00 +19°C° 0 mm 2 m/s 650 mmHg 88%
    22:00 +19°C° 0 mm 2 m/s 650 mmHg 88%
    23:00 +19°C° 0 mm 2 m/s 650 mmHg 88%
    Arată mai mult